www.pogodaiklimat.ru

Погода и климат >> Архив погоды >> Мексика >> Эмпальме


ПОГОДА в Эмпальме

  • Прогноз погоды в Эмпальме
  • Монитор погоды в Эмпальме

АРХИВ ПОГОДЫ в Эмпальме

Время (UTC), дата Ветер
(напр.,м/с)
 
Видим.   Явления Облачность Т
(С)
Тd
(С)
f
(%)
Тe
(С)
Тes
(С)
Комфортность P
(гПа)
Po
(гПа)
Тmin
(С)
Tmax
(С)
R
(мм)
R24
(мм)
S
(см)
12 16.08 СВ 2 10 км 5/5 800 м
[Sc diur, vesp]
+25.7 +23.5 88 +35 +35 очень
душно
1013.0 1011.6 +25.0 +38.1 6
15 16.08 СВ 3 30 км 8/5 800 м
[Sc diur, vesp]
+27.8 +23.1 76 +37 +39 очень
душно
1014.8 1013.4
18 16.08 ЮВ 3 30 км 8/8 800 м
[St]
+32.2 +24.7 65 +45 +49 опасность
перегрева
1014.9 1013.5 +25.0 +32.9
00 17.08 ЮЗ 1 30 км 5/5 800 м
[Sc diur, vesp]
+32.1 +25.9 70 +48 +50 опасность
перегрева
1011.9 1010.5 +25.0 +32.9
12 17.08 В 2 10 км ясно +27.4 +25.8 91 +41 +41 опасность
перегрева
1011.7 1010.3 +26.7 +32.9
15 17.08 СВ 4 30 км 4/0
[Ac trans]
+31.0 +25.4 72 +45 +48 опасность
перегрева
1013.7 1012.3
18 17.08 ЮВ 4 30 км 4/0
[Cs]
+34.6 +25.3 59 +49 +60 опасность
перегрева
1013.8 1012.4 +26.3 +35.1
21 17.08 ЮЗ 5 30 км 4/0
[Cs]
+35.6 +25.2 55 +49 +58 опасность
перегрева
1012.0 1010.6
00 18.08 ЮЗ 4 30 км 5/0 2000 м
[Ac inh]
+35.0 +24.6 55 +48 +49 опасность
перегрева
1008.9 1007.5 +26.3 +36.7
12 18.08 В 2 10 км ясно +28.4 +24.9 81 +41 +41 опасность
перегрева
1010.5 1009.1 +27.5 +36.7
15 18.08 Ю 3 30 км 4/0
[Ac cuf]
+31.6 +22.0 57 +40 +43 очень
душно
1012.1 1010.7
18 18.08 Ю 7 30 км ясно +35.0 +23.5 51 +46 +51 опасность
перегрева
1011.5 1010.4 +27.5 +35.1
21 18.08 Ю 7 30 км ясно +34.7 +23.0 51 +45 +50 опасность
перегрева
1010.8 1009.4
00 19.08 ЮЗ 6 30 км 3/3 800 м
[Cu med, cong]
+34.2 +26.0 62 +50 +51 опасность
перегрева
1009.1 1007.8 +35.7
12 19.08 штиль 0 10 км ясно +29.1 +26.3 85 +44 +44 опасность
перегрева
1010.3 1008.9 +28.4 +35.7
15 19.08 СВ 2 30 км ясно +31.2 +27.3 80 +50 +54 опасность
перегрева
1012.9 1011.5
18 19.08 Ю 2 30 км ясно +35.8 +26.3 58 +52 +70 опасность
перегрева
1011.9 1010.6 +28.4 +36.3
21 19.08 Ю 5 30 км 4/4 600 м
[Cu med, cong]
+37.3 +24.6 48 +49 +55 опасность
перегрева
1011.3 1009.9
00 20.08 ЮЗ 5 30 км 1/1 600 м
[Cu med, cong]
+36.4 +22.5 45 +46 +47 опасность
перегрева
1006.9 1005.6 +39.1
12 20.08 штиль 0 10 км ясно +31.0 +21.0 55 +38 +38 очень
душно
1007.3 1006.0 +30.1 +39.1
15 20.08 СВ 1 30 км ясно +33.4 +26.6 68 +51 +56 опасность
перегрева
1011.1 1009.7
18 20.08 Ю 4 30 км ясно +36.8 +25.1 51 +50 +62 опасность
перегрева
1011.0 1009.6 +30.1 +39.3
21 20.08 Ю 4 30 км ясно +39.8 +22.4 37 +48 +60 опасность
перегрева
1009.0 1007.6
00 21.08 З 5 30 км ясно +39.2 +20.6 34 +45 +47 опасность
перегрева
1005.5 1004.1 +30.1 +40.7
12 21.08 ЮВ 2 10 км ясно +30.8 +27.4 82 +49 +49 опасность
перегрева
1010.2 1008.8 +30.1 +40.7
15 21.08 Ю 1 30 км ясно +33.3 +26.0 66 +49 +54 опасность
перегрева
1012.5 1011.2
18 21.08 Ю 4 30 км ясно +35.7 +25.8 57 +51 +63 опасность
перегрева
1012.9 1011.6 +30.1 +3.6
21 21.08 ЮЗ 5 30 км ясно +35.3 +26.1 59 +51 +60 опасность
перегрева
1011.7 1010.3
00 22.08 ЮЗ 5 30 км ясно +34.6 +28.4 70 +56 +58 опасность
перегрева
1008.2 1006.8 +30.1 +37.5
12 22.08 СВ 3 10 км ясно +30.0 +22.8 65 +40 +40 очень
душно
1010.6 1009.2 +29.3 +37.5
15 22.08 Ю 1 30 км ясно +32.9 +23.8 59 +44 +50 опасность
перегрева
1011.9 1010.6
18 22.08 ЮЗ 4 30 км ясно +35.4 +25.6 57 +50 +62 опасность
перегрева
1012.5 1011.2 +29.1 +35.7
21 22.08 ЮЗ 7 30 км 5/5 800 м
[Cb calv]
+34.6 +27.0 65 +53 +55 опасность
перегрева
1011.7 1010.4

 

Местоположение метеостанции Эмпальме (Мексика): широта 27.95 долгота -110.70 высота над уровнем моря 12 м.

В архиве по умолчанию представлена погода в Эмпальме за последнюю неделю. Архивные данные за месяц целиком и за предыдущие месяцы, начиная с января 2011 года, Вы можете получить, выбрав интересующий диапазон дат из раскрывающегося списка и нажав кнопку "Ввод!".


*Определитесь, кто Вы:
робот инопланетянин человек

Внимание! Время в таблицах - всемирное. Для получения местного времени необходимо прибавить поправку, которая равна -7 ч.

Смотрите также архив погоды в соседних городах и на ближайших метеорологических станциях:

Погода в Гуаймасе (Мексика) (18 км)
Погода в Сьюдад-Обрегоне (Мексика) (106 км)
Погода в Эрмосильо Магна (Мексика) (128 км)
Погода в Эрмосильо (Мексика) (131 км)
Погода в Санта-Розалии (Мексика) (170 км)
Погода в Лорето (Мексика) (223 км)
Погода в Чойсе (Мексика) (282 км)
Погода в Накосари де Гарсия (Мексика) (287 км)
Погода в Темосачи (Мексика) (305 км)
Погода в Альтаре (Мексика) (326 км)

Пояснения к столбцам:

Ветер - указаны скорость ветра в м/с - средняя за 10 мин, порывы в срок и между сроками (в фигурных скобках) и направление, откуда дует ветер: С - северный, СВ - северо-восточный, В - восточный, ЮВ - юго-восточный, Ю - южный, ЮЗ - юго-западный, З - западный, СЗ - северо-западный.
Видимость - горизонтальная дальность видимости в метрах или километрах. При видимости от 1 до 10 км при отсутствии осадков обычно наблюдается дымка, при ухудшении видимости до 1 км и менее - туман. В сухую погоду видимость может ухудшаться дымом, пылью или мглою.
Явления - указаны атмосферные явления, наблюдавшиеся в срок или в последний час перед сроком; фигурными скобками обозначены явления, наблюдавшиеся между сроками (за 1-3 часа до срока); квадратными скобками обозначены град или гололедные отложения с указанием их диаметра в мм.
Облачность - указаны через наклонную черту общая и нижняя облачность в баллах и высота нижней границы облаков в метрах; квадратными скобками обозначены формы облаков: Ci - перистые, Cs - перисто-слоистые, Cc - перисто-кучевые, Ac - высококучевые, As - высокослоистые, Sc - слоисто-кучевые, Ns - слоисто-дождевые, Cu - кучевые, Cb - кучево-дождевые. Подробнее классификацию облаков см. в Атласе облаков (PDF).
T - Температура воздуха - температура, измеренная на высоте 2 м над землей.
Td - Температура точки росы - температура, при понижении до которой содержащийся в воздухе водяной пар достигнет насыщения.
f - Относительная влажность воздуха - влажноcть воздуха, измеренная на высоте 2 м над землей.
Te - Эффективная температура - температура, которую ощущает одетый по сезону человек в тени. Характеристика душности погоды. При расчете учитывается влияние влажности воздуха и скорости ветра на теплоощущения человека.
Tes - Эффективная температура на солнце - температура, которую ощущает человек, с поправкой на солнечный нагрев. Характеристика знойности погоды. Зависит от высоты солнца над горизонтом, облачности и скорости ветра. Ночью, в пасмурную погоду, а также при ветре 12 м/с и более поправка равна нулю.
P - Атмосферное давление - приведенное к уровню моря атмосферное давление.
Po - Атмосферное давление - измеренное на уровне метеостанции атмосферное давление.
Tmin - Минимальная температура - минимум температуры воздуха на высоте 2 м над землей.
Tmax - Максимальная температура - максимум температуры воздуха на высоте 2 м над землей.
R - Количество осадков - Количество выпавших осадков за период времени, мм. При наведении курсора мыши на число - период времени, за который выпало указанное количество осадков.
R24 - Количество осадков - Количество выпавших осадков за 24 часа, мм.
S - Снежный покров - Высота снежного покрова, см. При наведении курсора мыши на число - состояние снежного покрова и степень покрытия местности в баллах.